Regional Weather Roundup
Issued by NWS New Orleans/Baton Rouge, LA

Home | Current Version | Previous Version | Graphics & Text | Print | Product List | Glossary On
Versions: 1 2 3 4 5 6 7 8 9 10 11 12 13 14 15 16 17 18 19 20 21 22 23 24 25 26 27 28 29 30 31 32 33 34 35 36 37 38 39 40 41 42 43 44 45 46 47 48 49 50
496
ASUS44 KLIX 010801
RWRLIX
NEW ORLEANS REGIONAL WEATHER ROUNDUP
NATIONAL WEATHER SERVICE NEW ORLEANS LA
200 AM CST SUN FEB 01 2015

NOTE: "FAIR" INDICATES FEW OR NO CLOUDS BELOW 12,000 FEET WITH NO
      SIGNIFICANT WEATHER AND/OR OBSTRUCTIONS TO VISIBILITY.
      SKY/WX - SKY CONDITION AND SIGNIFICANT WEATHER.
      TMP - AIR TEMPERATURE.     DP    - DEWPOINT TEMPERATURE.
      RH  - RELATIVE HUMIDITY.   PRES  - PRESSURE.
      HI  - HEAT INDEX.          WCI   - WIND CHILL INDEX.

*  THESE STATIONS ARE NOT NWS OR FAA STATIONS AND ARE NOT UNDER
   NWS QUALITY CONTROL.

LAZ038-040-048-061>063-065>067-069-010900-
SOUTHEAST LOUISIANA

CITY           SKY/WX    TMP DP  RH WIND       PRES   REMARKS
N.O. AUDUBON     N/A     58  56  93 MISG        N/A
N.O. INTL ARPT CLOUDY    60  52  74 SE8       30.07F
N.O. LAKEFRONT CLOUDY    60  53  77 SE9       30.08F
N.O. DOWNTOWN* NOT AVBL
SLIDELL        CLOUDY    55  51  86 SE5       30.08F
BATON ROUGE    CLOUDY    56  50  80 E9        30.05F
BOOTHVILLE     CLOUDY    59  54  83 E8        30.07F
BELLE CHASSE   CLOUDY    61  53  75 SE10      30.07F
BOGALUSA*        N/A     55  48  80 SE5       30.10F
GALLIANO*      NOT AVBL
NEW ROADS*     NOT AVBL
GONZALES*      NOT AVBL
HAMMOND*       NOT AVBL
HOUMA*         CLOUDY    58  55  91 E5        30.05F
PORT FOURCHON* CLOUDY    66  61  82 SE14      30.08F

$$

MSZ070-080>082-010900-
SOUTHERN MISSISSIPPI

CITY           SKY/WX    TMP DP  RH WIND       PRES   REMARKS
MCCOMB         MOCLDY    50  46  86 SE6       30.08F
GULFPORT       CLOUDY    52  50  93 E6        30.10F
BILOXI         MOCLDY    53  51  93 E8        30.10F
PASCAGOULA     PTCLDY    44  43  96 CALM      30.14F

$$

COASTAL OBSERVATIONS
LAKE AND NEARSHORE STATIONS

STATION/POSITION TIME  TEMP    WIND        PRES    WAVE
                       AIR SEA DIR/SP/G            HT/PER
                 (UTC) (F)     (DEG/KT/KT) (MB)    (FT/S)
PASCAGOULA       0720   58     110/  7/ 10 1020.3
WAVELAND YACHT   0720   53      50/  8/  8 1018.9
GRAND ISLE       0720   63 63  120/  6/ 11 1018.4
SOUTHWEST PASS   0720   64 49  140/ 16/ 19 1019.0
NEW CANAL        0720   58 55  100/  1/  5 1019.1
SHELL BEACH      0720   59 56  110/ 10/ 12 1019.2

OFFSHORE STATIONS

STATION/POSITION TIME  TEMP    WIND        PRES    WAVE
                       AIR SEA DIR/SP/G            HT/PER
                 (UTC) (F)     (DEG/KT/KT) (MB)    (FT/S)
64 S DAUPHIN ISL 0708   67 69  140/ 16/ 19 1020.0    4/ 6

$$




USA.gov is the U.S. government's official web portal to all federal, state and local government web resources and services.